sat.trackr.live / text

‹ back to catalog

STARLINK-30091

NORAD 57463 · 2023-107G

PAYLOAD ACTIVE UNKNOWN

§ Identity

Operator
Country
US
Launch date
2023-07-28
Launch site
AFETR
Launch vehicle
Mass (kg)
RCS (m²)

Purposes: comms

External: N2YO · Heavens-Above · Gunter

§ Orbital elements

Epoch: 2026-05-25T04:00:03.998880Z

Period
93.04 min
Inclination
43.0007°
Eccentricity
0.0001401
Mean motion
15.47742364 rev/d
Perigee alt
422.4 km
Apogee alt
424.3 km
Semi-major
6,801.5 km
B*
9.7184e-3
RAAN
263.1273°
Arg perigee
270.7475°
Mean anomaly
163.9756°
Rev number
585

§ Raw data

STARLINK-300911 57463U 23107G   26145.16671295  .00554137  00000+0  97184-2 0  99982 57463  43.0007 263.1273 0001401 270.7475 163.9756 15.47742364  5851

JSON: /api/v1/satellites/57463 · /tle

For live sub-satellite position, see the globe view (requires WebGL).

§ Visibility from observer

Set your observer location to see the next 7 days of passes ≥ 10°. The values pass through the URL so the page stays shareable.

No JS? Fill the form by hand. The geolocation button needs JavaScript.